Lakehurst, NJ

3:36 AM EST on February 12, 2016 (GMT -0500)
Lakehurst Naes

Weather History for KNEL - February, 2014

Change the Weather History Date:

Saturday, February 22, 2014

  Actual Average Record
Temperature  
Mean Temperature 44 °F -  
Max Temperature 42 °F 42 °F 50 °F (2000)
Min Temperature 28 °F 30 °F 13 °F (2001)
Degree Days  
Heating Degree Days 22    
Moisture  
Dew Point 26 °F    
Average Humidity 61    
Maximum Humidity 96    
Minimum Humidity 18    
Precipitation  
Precipitation 0.00 in - - ()
Sea Level Pressure  
Sea Level Pressure 30.02 in    
Wind  
Wind Speed 5 mph (WSW)    
Max Wind Speed 23 mph    
Max Gust Speed 30 mph    
Averages and records for this station are not official NWS values.
T = Trace of Precipitation, MM = Missing Value Source: NWS Daily Summary

Daily Weather History Graph

Daily Weather History Graph

Search for Another Location

Airport or City:

Trip Planner

Search our weather history database for the weather conditions in past years. The results will help you decide how hot, cold, wet, or windy it might be!

Date:

Astronomy

Feb. 22, 2014 Rise Set
Actual Time 6:40 AM EST 5:41 PM EST
Civil Twilight 6:13 AM EST 6:08 PM EST
Nautical Twilight 5:42 AM EST 6:40 PM EST
Astronomical Twilight 5:10 AM EST 7:11 PM EST
Moon 12:33 AM EST (2/22) 10:50 AM EST (2/22)
Length of Visible Light 11h 55m
Length of Day
11h 00m
Waning Gibbous, 50% of the Moon is Illuminated
Feb 22
Waning Gibbous
Feb 22
Last Quarter
Mar 1
New
Mar 8
First Quarter
Mar 16
Full

Hourly Weather History & Observations

Time (EST) Temp. Windchill Dew Point Humidity Pressure Visibility Wind Dir Wind Speed Gust Speed Precip Events Conditions
12:00 AM 30.0 °F - 28.9 °F 96% 29.93 in - Calm Calm - N/A   Overcast
12:21 AM 30.2 °F - 28.4 °F 93% 29.94 in - Calm Calm - N/A   Scattered Clouds
1:00 AM 30.0 °F 26.5 °F 28.9 °F 96% 29.95 in - WNW 3.5 mph - N/A   Clear
2:00 AM 28.9 °F - 28.0 °F 96% 29.97 in - Calm Calm - N/A   Clear
4:00 AM 32.0 °F - 30.9 °F 96% 30.00 in - Calm Calm - N/A   Clear
5:00 AM 30.9 °F - 30.0 °F 96% 30.03 in - Calm Calm - N/A   Clear
6:00 AM 30.9 °F 26.2 °F 28.9 °F 92% 30.05 in - West 4.6 mph - N/A   Clear
7:00 AM 28.0 °F - 26.1 °F 92% 30.06 in - Calm Calm - N/A   Clear
8:00 AM 35.1 °F - 33.1 °F 92% 30.08 in - Calm Calm - N/A   Clear
9:00 AM 42.1 °F 40.2 °F 37.9 °F 85% 30.08 in - WSW 3.5 mph - N/A   Clear
10:00 AM 46.0 °F 41.9 °F 28.9 °F 51% 30.09 in - SW 8.1 mph - N/A   Clear
11:00 AM 51.1 °F - 24.1 °F 35% 30.07 in - SW 13.8 mph - N/A   Clear
12:00 PM 54.0 °F - 24.1 °F 31% 30.06 in - SW 17.3 mph 21.9 mph N/A   Clear
1:00 PM 57.0 °F - 19.9 °F 24% 30.02 in - WSW 17.3 mph 24.2 mph N/A   Clear
2:00 PM 59.0 °F - 18.0 °F 20% 30.00 in - WSW 20.7 mph 28.8 mph N/A   Clear
3:00 PM 59.0 °F - 15.1 °F 18% 29.99 in - West 23.0 mph 29.9 mph N/A   Clear
4:00 PM 57.9 °F - 16.0 °F 19% 29.99 in - West 11.5 mph 28.8 mph N/A   Clear
5:00 PM 55.9 °F - 18.0 °F 23% 30.01 in - WSW 11.5 mph 20.7 mph N/A   Clear
6:00 PM 50.0 °F - 19.0 °F 29% 30.01 in - WSW 6.9 mph - N/A   Clear
8:00 PM 43.0 °F 40.3 °F 27.0 °F 53% 30.04 in - SW 4.6 mph - N/A   Clear
9:00 PM 44.1 °F 40.1 °F 28.0 °F 53% 30.04 in - SW 6.9 mph - N/A   Clear
10:00 PM 44.1 °F 39.5 °F 27.0 °F 51% 30.04 in - SW 8.1 mph - N/A   Clear
11:00 PM 44.1 °F 39.5 °F 28.9 °F 55% 30.03 in - SW 8.1 mph - N/A   Clear